Crane Lake, MN

12:39 AM CST on January 19, 2017 (GMT -0600)
Crane Lake

Weather History for KCDD - January, 2013

Change the Weather History Date:

Saturday, January 26, 2013

  Actual Average Record
Temperature  
Mean Temperature -4 °F -  
Max Temperature 15 °F 17 °F 46 °F (2006)
Min Temperature -23 °F 0 °F -38 °F (1997)
Degree Days  
Heating Degree Days 69    
Moisture  
Dew Point -7 °F    
Average Humidity 80    
Maximum Humidity 92    
Minimum Humidity 72    
Precipitation  
Precipitation 0.00 in - - ()
Sea Level Pressure  
Sea Level Pressure 30.22 in    
Wind  
Wind Speed 1 mph (SSE)    
Max Wind Speed 8 mph    
Max Gust Speed -    
Visibility 10 miles    
Events Snow    
Averages and records for this station are not official NWS values.
T = Trace of Precipitation, MM = Missing Value Source: NWS Daily Summary

Daily Weather History Graph

Daily Weather History Graph

Search for Another Location

Airport or City:

Trip Planner

Search our weather history database for the weather conditions in past years. The results will help you decide how hot, cold, wet, or windy it might be!

Date:

Astronomy

Jan. 26, 2013 Rise Set
Actual Time 7:45 AM CST 5:00 PM CST
Civil Twilight 7:11 AM CST 5:34 PM CST
Nautical Twilight 6:33 AM CST 6:12 PM CST
Astronomical Twilight 5:56 AM CST 6:49 PM CST
Moon 4:59 PM CST (1/26) 7:00 AM CST (1/26)
Length of Visible Light 10h 23m
Length of Day
9h 14m
Full, 100% of the Moon is Illuminated
Jan 26
Full
Jan 26
Full
Feb 3
Last Quarter
Feb 10
New
Feb 17
First Quarter

Hourly Weather History & Observations

Time (CST) Temp. Windchill Dew Point Humidity Pressure Visibility Wind Dir Wind Speed Gust Speed Precip Events Conditions
12:15 AM -20.2 °F - -25.6 °F 76% 30.28 in 10.0 mi Calm Calm - N/A   Clear
12:33 AM -20.2 °F - -25.6 °F 76% 30.28 in 10.0 mi Calm Calm - N/A   Clear
12:55 AM -20.2 °F - -25.6 °F 76% 30.28 in 10.0 mi Calm Calm - N/A   Clear
1:18 AM -20.2 °F - -25.6 °F 76% 30.29 in 10.0 mi Calm Calm - N/A   Clear
1:33 AM -22.0 °F - -27.4 °F 76% 30.29 in 10.0 mi Calm Calm - N/A   Clear
1:53 AM -22.0 °F - -27.4 °F 76% 30.29 in 10.0 mi Calm Calm - N/A   Clear
2:13 AM -22.0 °F - -27.4 °F 76% 30.29 in 10.0 mi Calm Calm - N/A   Clear
2:33 AM -22.0 °F - -27.4 °F 76% 30.28 in 10.0 mi Calm Calm - N/A   Clear
2:53 AM -23.8 °F - -27.4 °F 83% 30.29 in 10.0 mi Calm Calm - N/A   Clear
3:13 AM -23.8 °F - -27.4 °F 83% 30.28 in 10.0 mi Calm Calm - N/A   Clear
3:33 AM -23.8 °F - -27.4 °F 83% 30.29 in 10.0 mi Calm Calm - N/A   Clear
3:53 AM -23.8 °F - -27.4 °F 83% 30.28 in 10.0 mi Calm Calm - N/A   Clear
4:13 AM -23.8 °F - -27.4 °F 83% 30.27 in 10.0 mi Calm Calm - N/A   Clear
4:35 AM -23.8 °F - -27.4 °F 83% 30.27 in 10.0 mi Calm Calm - N/A   Clear
4:53 AM -23.8 °F - -27.4 °F 83% 30.27 in 10.0 mi Calm Calm - N/A   Clear
5:13 AM -23.8 °F - -29.2 °F 76% 30.27 in 10.0 mi Calm Calm - N/A   Clear
5:35 AM -23.8 °F - -29.2 °F 76% 30.28 in 10.0 mi Calm Calm - N/A   Clear
5:55 AM -23.8 °F - -29.2 °F 76% 30.27 in 10.0 mi Calm Calm - N/A   Clear
6:13 AM -23.8 °F - -29.2 °F 76% 30.28 in 10.0 mi Calm Calm - N/A   Clear
6:33 AM -23.8 °F - -29.2 °F 76% 30.28 in 10.0 mi Calm Calm - N/A   Clear
6:53 AM -23.8 °F - -27.4 °F 83% 30.29 in 10.0 mi Calm Calm - N/A   Clear
7:14 AM -22.0 °F - -27.4 °F 76% 30.29 in 10.0 mi Calm Calm - N/A   Clear
7:33 AM -22.0 °F - -25.6 °F 83% 30.29 in 10.0 mi Calm Calm - N/A   Clear
7:53 AM -20.2 °F - -25.6 °F 76% 30.29 in 10.0 mi Calm Calm - N/A   Scattered Clouds
8:13 AM -18.4 °F - -23.8 °F 76% 30.28 in 10.0 mi Calm Calm - N/A   Mostly Cloudy
8:35 AM -16.6 °F - -18.4 °F 92% 30.28 in 10.0 mi Calm Calm - N/A   Scattered Clouds
8:53 AM -14.8 °F - -20.2 °F 77% 30.31 in 10.0 mi Calm Calm - N/A   Scattered Clouds
9:13 AM -14.8 °F - -18.4 °F 84% 30.30 in 10.0 mi Calm Calm - N/A   Scattered Clouds
9:34 AM -9.4 °F - -13.0 °F 84% 30.30 in 10.0 mi Calm Calm - N/A   Mostly Cloudy
9:53 AM -5.8 °F - -9.4 °F 84% 30.30 in 10.0 mi Calm Calm - N/A   Overcast
10:14 AM -4.0 °F - -7.6 °F 85% 30.28 in 10.0 mi Calm Calm - N/A   Overcast
10:37 AM -2.2 °F -10.4 °F -5.8 °F 85% 30.30 in 10.0 mi NW 3.5 mph - N/A   Mostly Cloudy
11:01 AM -0.4 °F - -4.0 °F 85% 30.28 in 10.0 mi Calm Calm - N/A   Scattered Clouds
11:14 AM -0.4 °F - -2.2 °F 92% 30.27 in 10.0 mi Calm Calm - N/A   Mostly Cloudy
11:35 AM 1.4 °F - -0.4 °F 92% 30.27 in 10.0 mi Calm Calm - N/A   Overcast
11:53 AM 3.2 °F - -0.4 °F 85% 30.27 in 10.0 mi Calm Calm - N/A   Overcast
12:14 PM 3.2 °F - 1.4 °F 92% 30.25 in 10.0 mi Calm Calm - N/A   Mostly Cloudy
12:34 PM 6.8 °F -5.9 °F -0.4 °F 72% 30.18 in 10.0 mi SSE 8.1 mph - N/A   Scattered Clouds
12:53 PM 5.0 °F - 1.4 °F 85% 30.24 in 10.0 mi Calm Calm - N/A   Overcast
1:13 PM 6.8 °F - 5.0 °F 92% 30.23 in 7.0 mi Calm Calm - N/A Snow Light Snow
1:34 PM 10.4 °F 4.0 °F 6.8 °F 85% 30.22 in 10.0 mi SSE 3.5 mph - N/A   Mostly Cloudy
1:55 PM 12.2 °F 0.7 °F 6.8 °F 79% 30.21 in 5.0 mi SSE 8.1 mph - N/A Snow Light Snow
2:13 PM 12.2 °F 6.1 °F 6.8 °F 79% 30.19 in 3.0 mi SSE 3.5 mph - N/A Snow Light Snow
2:33 PM 12.2 °F 4.3 °F 6.8 °F 79% 30.19 in 5.0 mi SSE 4.6 mph - N/A Snow Light Snow
2:53 PM 12.2 °F 4.3 °F 6.8 °F 79% 30.18 in 10.0 mi SE 4.6 mph - N/A Snow Light Snow
3:33 PM 14.0 °F 5.1 °F 8.6 °F 79% 30.18 in 10.0 mi South 5.8 mph - N/A   Overcast
3:53 PM 14.0 °F 6.5 °F 8.6 °F 79% 30.17 in 10.0 mi SE 4.6 mph - N/A   Overcast
4:13 PM 15.8 °F 8.6 °F 8.6 °F 73% 30.15 in 10.0 mi SSE 4.6 mph - N/A   Overcast
4:33 PM 15.8 °F 10.2 °F 8.6 °F 73% 30.15 in 10.0 mi SSE 3.5 mph - N/A   Overcast
4:53 PM 15.8 °F - 10.4 °F 79% 30.14 in 10.0 mi Calm Calm - N/A   Overcast
5:13 PM 15.8 °F 8.6 °F 8.6 °F 73% 30.13 in 10.0 mi SSE 4.6 mph - N/A   Overcast
5:33 PM 15.8 °F 10.2 °F 8.6 °F 73% 30.12 in 10.0 mi SE 3.5 mph - N/A   Overcast
5:53 PM 15.8 °F 8.6 °F 10.4 °F 79% 30.13 in 10.0 mi SSE 4.6 mph - N/A   Overcast
6:13 PM 15.8 °F 7.2 °F 10.4 °F 79% 30.13 in 10.0 mi SSE 5.8 mph - N/A   Overcast
6:33 PM 15.8 °F 7.2 °F 10.4 °F 79% 30.12 in 10.0 mi SSE 5.8 mph - N/A   Overcast
6:53 PM 15.8 °F 5.1 °F 8.6 °F 73% 30.13 in 10.0 mi SSE 8.1 mph - N/A   Overcast
7:13 PM 15.8 °F 5.1 °F 8.6 °F 73% 30.12 in 10.0 mi SSE 8.1 mph - N/A   Overcast
7:33 PM 15.8 °F 8.6 °F 8.6 °F 73% 30.13 in 10.0 mi SSE 4.6 mph - N/A   Overcast
7:53 PM 14.0 °F 5.1 °F 8.6 °F 79% 30.12 in 10.0 mi SSE 5.8 mph - N/A   Overcast
8:13 PM 14.0 °F 3.9 °F 8.6 °F 79% 30.11 in 10.0 mi South 6.9 mph - N/A   Overcast
8:33 PM 14.0 °F 5.1 °F 8.6 °F 79% 30.11 in 10.0 mi SSE 5.8 mph - N/A   Overcast
8:53 PM 14.0 °F 6.5 °F 8.6 °F 79% 30.11 in 10.0 mi South 4.6 mph - N/A   Overcast
9:13 PM 14.0 °F 6.5 °F 8.6 °F 79% 30.10 in 10.0 mi SSE 4.6 mph - N/A   Mostly Cloudy
9:33 PM 14.0 °F 8.2 °F 8.6 °F 79% 30.11 in 10.0 mi South 3.5 mph - N/A   Mostly Cloudy
9:53 PM 14.0 °F 8.2 °F 8.6 °F 79% 30.12 in 10.0 mi South 3.5 mph - N/A   Mostly Cloudy
10:13 PM 15.8 °F 8.6 °F 10.4 °F 79% 30.12 in 10.0 mi South 4.6 mph - N/A   Scattered Clouds
10:33 PM 14.0 °F - 10.4 °F 86% 30.12 in 10.0 mi Calm Calm - N/A   Scattered Clouds
10:53 PM 15.8 °F - 10.4 °F 79% 30.12 in 7.0 mi Calm Calm - N/A Snow Light Snow
11:13 PM 15.8 °F - 10.4 °F 79% 30.14 in 10.0 mi Calm Calm - N/A   Mostly Cloudy
11:33 PM 15.8 °F 8.6 °F 10.4 °F 79% 30.12 in 10.0 mi SSE 4.6 mph - N/A   Mostly Cloudy
11:53 PM 15.8 °F 8.6 °F 10.4 °F 79% 30.11 in 10.0 mi SSE 4.6 mph - N/A   Overcast